This is the latest recevied weather packets stored in our database for station/object KO6MEX-13. If no packets are shown the sender has not sent any weather packets the latest 1 day(s).
| Time | Temp. | Humidity | Pressure | Rain* | Wind** | Luminosity | Snow |
|---|---|---|---|---|---|---|---|
| 1778018553 | 20° C | 55% | 1018.9 hPa | 0 mm | 0 m/s | 729 W/m² | - |
| 1778018252 | 19.44° C | 55% | 1018.9 hPa | 0 mm | 0.89 m/s, 62° | 753 W/m² | - |
| 1778017949 | 18.89° C | 55% | 1019.2 hPa | 0 mm | 0 m/s | 310 W/m² | - |
| 1778017646 | 18.89° C | 55% | 1019 hPa | 0 mm | 3.13 m/s, 267° | 521 W/m² | - |
| 1778017344 | 18.89° C | 55% | 1019 hPa | 0 mm | 3.13 m/s, 201° | 718 W/m² | - |
| 1778017041 | 18.33° C | 58% | 1019.1 hPa | 0 mm | 2.24 m/s, 260° | 534 W/m² | - |
| 1778016738 | 18.33° C | 59% | 1019.1 hPa | 0 mm | 3.58 m/s, 270° | 529 W/m² | - |
| 1778016434 | 17.78° C | 60% | 1019.3 hPa | 0 mm | 0.89 m/s, 264° | 645 W/m² | - |
| 1778016132 | 17.78° C | 60% | 1019.1 hPa | 0 mm | 2.24 m/s, 202° | 354 W/m² | - |
| 1778015828 | 18.33° C | 58% | 1019.2 hPa | 0 mm | 1.79 m/s, 202° | 331 W/m² | - |
| 1778015526 | 17.78° C | 59% | 1019.3 hPa | 0 mm | 1.79 m/s, 249° | 381 W/m² | - |
| 1778015222 | 17.78° C | 61% | 1019.2 hPa | 0 mm | 1.34 m/s, 203° | 441 W/m² | - |
| 1778014919 | 17.78° C | 60% | 1019.3 hPa | 0 mm | 1.79 m/s, 250° | 430 W/m² | - |
| 1778014616 | 18.33° C | 58% | 1019.4 hPa | 0 mm | 1.79 m/s, 215° | 361 W/m² | - |
| 1778014314 | 17.78° C | 58% | 1019.2 hPa | 0 mm | 1.79 m/s, 196° | 344 W/m² | - |
| 1778014011 | 17.78° C | 58% | 1019.2 hPa | 0 mm | 2.24 m/s, 204° | 370 W/m² | - |
| 1778013709 | 17.78° C | 58% | 1019.4 hPa | 0 mm | 0.89 m/s, 187° | 337 W/m² | - |
| 1778013406 | 18.33° C | 56% | 1019.4 hPa | 0 mm | 3.58 m/s, 223° | 408 W/m² | - |
| 1778013102 | 18.33° C | 57% | 1019.4 hPa | 0 mm | 1.34 m/s, 215° | 576 W/m² | - |
| 1778012798 | 18.33° C | 58% | 1019.1 hPa | 0 mm | 5.36 m/s, 224° | 802 W/m² | - |
| 1778012494 | 17.78° C | 60% | 1019.2 hPa | 0 mm | 2.24 m/s, 243° | 900 W/m² | - |
| 1778012191 | 17.78° C | 59% | 1019.4 hPa | 0 mm | 4.92 m/s, 198° | 552 W/m² | - |
| 1778011889 | 17.22° C | 61% | 1019.3 hPa | 0 mm | 1.34 m/s, 197° | 533 W/m² | - |
| 1778011587 | 17.22° C | 60% | 1019.5 hPa | 0 mm | 1.79 m/s, 241° | 461 W/m² | - |
| 1778011284 | 17.22° C | 60% | 1019.5 hPa | 0 mm | 1.34 m/s, 54° | 446 W/m² | - |
* Rain latest hour (hover to see other rain measurements)
** Current wind speed in m/s (hover to see current wind gust speed)